When you browse on this site, cookies collect data to enhance your experience and personalize the content and advertising you see.
Visit our Privacy Policy to learn more. By continuing to use the site, you agree to this use of cookies and data.
  • In Portugal
  • List of Countries
  • For 7 days
  • Water Temperature
  • Weather Map
  • Weather Widgets
  • user-avatar
    Login

    Hourly Weather Dukla

    Today, 7 April, Tuesday

    Time Temperature Precipitation Wind Pressure Humidity
    00:00 +5°C° 0 mm 2 mps 740 mmHg 65%
    01:00 +5°C° 0 mm 2 mps 740 mmHg 65%
    02:00 +4°C° 0 mm 2 mps 740 mmHg 67%
    03:00 +4°C° 0 mm 2 mps 740 mmHg 68%
    04:00 +4°C° 0 mm 2 mps 740 mmHg 70%
    05:00 +6°C° 0 mm 1 mps 741 mmHg 67%
    06:00 +7°C° 0 mm 1 mps 741 mmHg 65%
    07:00 +9°C° 0 mm 1 mps 742 mmHg 60%
    08:00 +11°C° 0 mm 1 mps 742 mmHg 55%
    09:00 +13°C° 0 mm 1 mps 742 mmHg 50%
    10:00 +15°C° 0 mm 1 mps 742 mmHg 45%
    11:00 +16°C° 0 mm 1 mps 741 mmHg 43%
    12:00 +16°C° 0 mm 1 mps 741 mmHg 41%
    13:00 +18°C° 0 mm 2 mps 741 mmHg 36%
    14:00 +17°C° 0 mm 2 mps 741 mmHg 37%
    15:00 +17°C° 0 mm 2 mps 740 mmHg 38%
    16:00 +17°C° 0 mm 2 mps 740 mmHg 39%
    17:00 +15°C° 0 mm 2 mps 740 mmHg 46%
    18:00 +13°C° 0 mm 1 mps 740 mmHg 53%
    19:00 +10°C° 0 mm 1 mps 740 mmHg 60%
    20:00 +10°C° 0 mm 1 mps 740 mmHg 61%
    21:00 +9°C° 0 mm 1 mps 740 mmHg 63%
    22:00 +9°C° 0 mm 1 mps 740 mmHg 64%
    23:00 +8°C° 0 mm 1 mps 740 mmHg 65%

    Tomorrow, 8 April, Wednesday

    Time Temperature Precipitation Wind Pressure Humidity
    00:00 +8°C° 0 mm 1 mps 740 mmHg 66%
    01:00 +7°C° 0 mm 1 mps 740 mmHg 67%
    02:00 +6°C° 0 mm 0 mps 740 mmHg 67%
    03:00 +6°C° 0 mm 0 mps 740 mmHg 67%
    04:00 +5°C° 0 mm 0 mps 740 mmHg 67%
    05:00 +7°C° 0 mm 0 mps 740 mmHg 64%
    06:00 +8°C° 0 mm 0 mps 740 mmHg 61%
    07:00 +9°C° 0 mm 0 mps 740 mmHg 57%
    08:00 +12°C° 0 mm 0 mps 740 mmHg 51%
    09:00 +14°C° 0 mm 0 mps 740 mmHg 44%
    10:00 +16°C° 0 mm 0 mps 740 mmHg 37%
    11:00 +19°C° 0 mm 1 mps 739 mmHg 35%
    12:00 +20°C° 0 mm 1 mps 739 mmHg 33%
    13:00 +20°C° 0 mm 1 mps 738 mmHg 31%
    14:00 +20°C° 0 mm 1 mps 738 mmHg 33%
    15:00 +19°C° 0 mm 1 mps 737 mmHg 34%
    16:00 +19°C° 0 mm 1 mps 737 mmHg 36%
    17:00 +16°C° 0 mm 1 mps 737 mmHg 42%
    18:00 +13°C° 0 mm 1 mps 736 mmHg 49%
    19:00 +11°C° 0 mm 1 mps 736 mmHg 55%
    20:00 +11°C° 0 mm 1 mps 736 mmHg 58%
    21:00 +10°C° 0 mm 1 mps 736 mmHg 60%
    22:00 +10°C° 0 mm 1 mps 736 mmHg 62%
    23:00 +9°C° 0 mm 1 mps 735 mmHg 63%

    Day after tomorrow, 9 April, Thursday

    Time Temperature Precipitation Wind Pressure Humidity
    00:00 +9°C° 0 mm 1 mps 735 mmHg 63%
    01:00 +9°C° 0 mm 1 mps 735 mmHg 64%
    02:00 +8°C° 0 mm 1 mps 734 mmHg 65%
    03:00 +8°C° 0 mm 1 mps 734 mmHg 66%
    04:00 +7°C° 0 mm 1 mps 734 mmHg 67%
    05:00 +9°C° 0 mm 1 mps 734 mmHg 65%
    06:00 +10°C° 0 mm 1 mps 734 mmHg 63%
    07:00 +11°C° 0 mm 1 mps 734 mmHg 61%
    08:00 +13°C° 0 mm 1 mps 734 mmHg 55%
    09:00 +15°C° 0 mm 2 mps 733 mmHg 49%
    10:00 +16°C° 0 mm 2 mps 733 mmHg 43%
    11:00 +17°C° 0 mm 2 mps 733 mmHg 41%
    12:00 +18°C° 0 mm 2 mps 733 mmHg 39%
    13:00 +19°C° 0 mm 3 mps 732 mmHg 37%
    14:00 +19°C° 0 mm 3 mps 732 mmHg 38%
    15:00 +19°C° 0 mm 3 mps 732 mmHg 39%
    16:00 +19°C° 0 mm 3 mps 731 mmHg 40%
    17:00 +16°C° 0 mm 2 mps 731 mmHg 46%
    18:00 +14°C° 0 mm 2 mps 731 mmHg 52%
    19:00 +12°C° 0 mm 2 mps 731 mmHg 59%
    20:00 +10°C° 0 mm 2 mps 731 mmHg 63%
    21:00 +9°C° 0 mm 2 mps 732 mmHg 67%
    22:00 +9°C° 0 mm 2 mps 732 mmHg 71%
    23:00 +9°C° 0.1 mm 2 mps 732 mmHg 77%

    10 April, Friday

    Time Temperature Precipitation Wind Pressure Humidity
    00:00 +9°C° 0.1 mm 2 mps 732 mmHg 83%
    01:00 +9°C° 0.1 mm 2 mps 732 mmHg 89%
    02:00 +8°C° 0.1 mm 2 mps 733 mmHg 91%
    03:00 +7°C° 0.1 mm 2 mps 733 mmHg 93%
    04:00 +7°C° 0.1 mm 2 mps 733 mmHg 95%
    05:00 +7°C° 0 mm 2 mps 733 mmHg 89%
    06:00 +7°C° 0 mm 3 mps 733 mmHg 84%
    07:00 +7°C° 0 mm 4 mps 734 mmHg 78%
    08:00 +8°C° 0 mm 4 mps 734 mmHg 70%
    09:00 +8°C° 0 mm 4 mps 734 mmHg 62%
    10:00 +10°C° 0 mm 4 mps 735 mmHg 54%
    11:00 +11°C° 0 mm 4 mps 735 mmHg 51%
    12:00 +11°C° 0 mm 4 mps 735 mmHg 49%
    13:00 +12°C° 0 mm 4 mps 735 mmHg 47%
    14:00 +11°C° 0 mm 4 mps 734 mmHg 46%
    15:00 +11°C° 0 mm 3 mps 734 mmHg 45%
    16:00 +11°C° 0 mm 3 mps 734 mmHg 44%
    17:00 +9°C° 0 mm 2 mps 734 mmHg 50%
    18:00 +8°C° 0 mm 2 mps 734 mmHg 57%
    19:00 +7°C° 0 mm 1 mps 734 mmHg 63%
    20:00 +6°C° 0 mm 1 mps 734 mmHg 63%
    21:00 +6°C° 0 mm 1 mps 734 mmHg 64%
    22:00 +5°C° 0 mm 1 mps 734 mmHg 65%
    23:00 +5°C° 0 mm 1 mps 734 mmHg 65%

    11 April, Saturday

    Time Temperature Precipitation Wind Pressure Humidity
    00:00 +4°C° 0 mm 1 mps 734 mmHg 65%
    01:00 +3°C° 0 mm 0 mps 734 mmHg 65%
    02:00 +3°C° 0 mm 0 mps 734 mmHg 65%
    03:00 +2°C° 0 mm 0 mps 734 mmHg 65%
    04:00 +2°C° 0 mm 0 mps 735 mmHg 66%
    05:00 +4°C° 0 mm 0 mps 735 mmHg 62%
    06:00 +5°C° 0 mm 0 mps 735 mmHg 58%
    07:00 +7°C° 0 mm 0 mps 735 mmHg 55%
    08:00 +9°C° 0 mm 1 mps 735 mmHg 51%
    09:00 +11°C° 0 mm 1 mps 735 mmHg 48%
    10:00 +12°C° 0 mm 2 mps 735 mmHg 44%
    11:00 +13°C° 0 mm 2 mps 735 mmHg 43%
    12:00 +13°C° 0 mm 2 mps 735 mmHg 41%
    13:00 +14°C° 0 mm 2 mps 735 mmHg 40%
    14:00 +14°C° 0 mm 2 mps 734 mmHg 41%
    15:00 +14°C° 0 mm 2 mps 734 mmHg 43%
    16:00 +13°C° 0 mm 2 mps 734 mmHg 44%
    17:00 +12°C° 0 mm 2 mps 734 mmHg 51%
    18:00 +9°C° 0 mm 2 mps 734 mmHg 57%
    19:00 +7°C° 0 mm 2 mps 734 mmHg 64%
    20:00 +7°C° 0 mm 1 mps 734 mmHg 66%
    21:00 +6°C° 0 mm 1 mps 734 mmHg 67%
    22:00 +6°C° 0 mm 1 mps 734 mmHg 69%
    23:00 +5°C° 0 mm 1 mps 734 mmHg 70%

    12 April, Sunday

    Time Temperature Precipitation Wind Pressure Humidity
    00:00 +5°C° 0 mm 1 mps 734 mmHg 72%
    01:00 +4°C° 0 mm 1 mps 734 mmHg 73%
    02:00 +4°C° 0 mm 1 mps 734 mmHg 73%
    03:00 +4°C° 0 mm 1 mps 734 mmHg 73%
    04:00 +4°C° 0 mm 1 mps 733 mmHg 74%
    05:00 +5°C° 0 mm 1 mps 733 mmHg 69%
    06:00 +7°C° 0 mm 1 mps 733 mmHg 64%
    07:00 +8°C° 0 mm 1 mps 733 mmHg 60%
    08:00 +10°C° 0 mm 1 mps 733 mmHg 55%
    09:00 +12°C° 0 mm 2 mps 733 mmHg 50%
    10:00 +14°C° 0 mm 2 mps 732 mmHg 44%
    11:00 +15°C° 0 mm 2 mps 732 mmHg 44%
    12:00 +16°C° 0 mm 3 mps 732 mmHg 43%
    13:00 +17°C° 0 mm 3 mps 731 mmHg 42%
    14:00 +17°C° 0 mm 3 mps 731 mmHg 44%
    15:00 +17°C° 0 mm 4 mps 730 mmHg 47%
    16:00 +15°C° 0 mm 4 mps 730 mmHg 49%
    17:00 +14°C° 0 mm 4 mps 729 mmHg 55%
    18:00 +12°C° 0 mm 4 mps 729 mmHg 61%
    19:00 +10°C° 0 mm 4 mps 729 mmHg 67%
    20:00 +10°C° 0 mm 4 mps 729 mmHg 68%
    21:00 +10°C° 0 mm 4 mps 729 mmHg 68%
    22:00 +8°C° 0 mm 4 mps 728 mmHg 69%
    23:00 +8°C° 0 mm 4 mps 728 mmHg 70%
    Show more